Location: Staunton
(38.1490°N, 79.0720°W)
Time: 12:42:11
(UTC-04:00)

ISS - Pass Details

Date: 22 March 2017
Orbit: 400 x 408 km, 51.6° (Epoch: 24 July)

Event Time Altitude Azimuth Distance (km) Brightness Sun altitude
Exits shadow 05:08:20 27° 35° (NE) 835 -1.8 -25.3°
Drops below altitude 10° 05:11:07 10° 91° (E) 1,491 -0.1 -24.8°
Enters shadow 06:10:49 -63° 310° (NW) 11,780 3.5 -13.6°
Maximum altitude 06:44:47 32° 226° (SW) 733 -2.9 -7.0°
